Location: Unspecified
(32.5099°N, 80.0190°W)
Time: 13:14:59
(UTC-04:00)

CZ-3 Stage 3 - Visible Passes

Search period start: 27 September 2016 00:00
Search period end: 07 October 2016 00:00
Orbit: 490 x 34713 km, 30.6° (Epoch: 25 September)

Date Brightness Start Highest point End Pass type
(mag) Time Alt. Az. Time Alt. Az. Time Alt. Az.
28 Sep 7.4 06:02:12 10° SE 13:27:21 74° SE 14:39:23 10° E visible
29 Sep 9.3 06:57:00 10° E 09:28:00 25° E 10:38:57 10° ENE visible
29 Sep 5.3 21:21:13 10° WNW 21:39:00 23° WSW 21:43:26 14° SSW visible
01 Oct 7.4 05:49:50 10° SE 13:17:30 75° SE 14:30:54 10° E visible
02 Oct 9.3 06:42:53 10° E 09:18:18 26° E 10:30:44 10° ENE visible
02 Oct 5.4 21:12:51 10° WNW 21:30:15 22° WSW 21:35:19 12° SSW visible
04 Oct 7.5 05:37:42 10° SE 13:07:36 75° SE 14:22:24 10° E visible
05 Oct 9.3 06:28:51 10° E 09:08:36 26° E 10:22:28 10° ENE visible
05 Oct 5.5 21:04:29 10° WNW 21:21:27 21° WSW 21:26:55 10° SSW visible
